| time (UTC) | temp F | wind direction | speed MPH | gust MPH | rain 1hr in | rain 24hr in | rain mn in | humidity % | barometer mb |
| 20260508014006 | 47 | 0.0 | 0.0 | 0.00 | 0.00 | 0.00 | 27 | 1015.0 | |
| 20260508013005 | 47 | 0.0 | 0.0 | 0.00 | 0.00 | 0.00 | 26 | 1015.0 | |
| 20260508012006 | 47 | 0.0 | 0.0 | 0.00 | 0.00 | 0.00 | 24 | 1015.0 | |
| 20260508011215 | 47 | 0.0 | 0.0 | 0.00 | 0.00 | 0.00 | 26 | 1015.0 | |
| 20260508010006 | 48 | 0.0 | 0.0 | 0.00 | 0.00 | 0.00 | 30 | 1015.1 | |
| 20260508005006 | 48 | 0.0 | 0.0 | 0.00 | 0.00 | 0.00 | 30 | 1015.2 | |
| 20260508004006 | 47 | 0.0 | 0.0 | 0.00 | 0.00 | 0.00 | 31 | 1015.2 | |
| 20260508003006 | 47 | 0.0 | 0.0 | 0.00 | 0.00 | 0.00 | 31 | 1015.4 | |
| 20260508002215 | 47 | 0.0 | 0.0 | 0.00 | 0.00 | 0.00 | 33 | 1015.6 | |
| 20260508001006 | 46 | 0.0 | 0.0 | 0.00 | 0.00 | 0.00 | 34 | 1015.8 | |
| 20260508000219 | 46 | 0.0 | 0.0 | 0.00 | 0.00 | 0.00 | 33 | 1015.8 | |
| 20260507235005 | 46 | 0.0 | 0.0 | 0.00 | 0.00 | 0.00 | 33 | 1015.9 | |
| 20260507234006 | 46 | 0.0 | 0.0 | 0.00 | 0.00 | 0.00 | 34 | 1016.1 | |
| 20260507233006 | 46 | 0.0 | 0.0 | 0.00 | 0.00 | 0.00 | 35 | 1016.2 | |
| 20260507232216 | 46 | 0.0 | 0.0 | 0.00 | 0.00 | 0.00 | 35 | 1016.3 | |
| 20260507231006 | 45 | 0.0 | 0.0 | 0.00 | 0.00 | 0.00 | 35 | 1016.3 | |
| 20260507230006 | 46 | 0.0 | 0.0 | 0.00 | 0.00 | 0.00 | 35 | 1016.5 | |
| 20260507225005 | 45 | 0.0 | 0.0 | 0.00 | 0.00 | 0.00 | 36 | 1016.5 | |
| 20260507224005 | 45 | 0.0 | 0.0 | 0.00 | 0.00 | 0.00 | 36 | 1016.5 | |
| 20260507223006 | 45 | 0.0 | 0.0 | 0.00 | 0.00 | 0.00 | 36 | 1016.5 | |
| 20260507222006 | 46 | 0.0 | 0.0 | 0.00 | 0.00 | 0.00 | 36 | 1016.6 | |
| 20260507221006 | 44 | 0.0 | 0.0 | 0.00 | 0.00 | 0.00 | 36 | 1016.6 | |
| 20260507220006 | 44 | 0.0 | 0.0 | 0.00 | 0.00 | 0.00 | 35 | 1016.6 | |
| 20260507215005 | 44 | 0.0 | 0.0 | 0.00 | 0.00 | 0.00 | 35 | 1016.6 | |
| 20260507214006 | 43 | 0.0 | 0.0 | 0.00 | 0.00 | 0.00 | 35 | 1016.6 | |
| 20260507213006 | 43 | 0.0 | 0.0 | 0.00 | 0.00 | 0.00 | 36 | 1016.5 | |
| 20260507212006 | 43 | 0.0 | 0.0 | 0.00 | 0.00 | 0.00 | 36 | 1016.6 | |
| 20260507211005 | 43 | 0.0 | 0.0 | 0.00 | 0.00 | 0.00 | 37 | 1016.6 | |
| 20260507210006 | 43 | 0.0 | 0.0 | 0.00 | 0.00 | 0.00 | 37 | 1016.6 | |
| 20260507205006 | 43 | 0.0 | 0.0 | 0.00 | 0.00 | 0.00 | 36 | 1016.7 | |
| 20260507204006 | 42 | 0.0 | 0.0 | 0.00 | 0.00 | 0.00 | 36 | 1016.8 | |
| 20260507203005 | 43 | 0.0 | 0.0 | 0.00 | 0.00 | 0.00 | 37 | 1016.8 | |
| 20260507202006 | 43 | 0.0 | 0.0 | 0.00 | 0.00 | 0.00 | 37 | 1016.8 | |
| 20260507201006 | 43 | 0.0 | 0.0 | 0.00 | 0.00 | 0.00 | 38 | 1016.9 | |
| 20260507200006 | 44 | 0.0 | 0.0 | 0.00 | 0.00 | 0.00 | 39 | 1016.8 | |
| 20260507195005 | 43 | 0.0 | 0.0 | 0.00 | 0.00 | 0.00 | 39 | 1016.8 | |
| 20260507194006 | 42 | 0.0 | 0.0 | 0.00 | 0.00 | 0.00 | 40 | 1016.9 | |
| 20260507193006 | 42 | 0.0 | 0.0 | 0.00 | 0.00 | 0.00 | 40 | 1017.0 | |
| 20260507192006 | 42 | 0.0 | 0.0 | 0.00 | 0.00 | 0.00 | 41 | 1016.9 | |
| 20260507191006 | 43 | 0.0 | 0.0 | 0.00 | 0.00 | 0.00 | 41 | 1017.1 | |
| 20260507190006 | 43 | 0.0 | 0.0 | 0.00 | 0.00 | 0.00 | 42 | 1017.2 | |
| 20260507185006 | 42 | 0.0 | 0.0 | 0.00 | 0.00 | 0.00 | 42 | 1017.2 | |
| 20260507184005 | 42 | 0.0 | 0.0 | 0.00 | 0.00 | 0.00 | 43 | 1017.3 | |
| 20260507183215 | 41 | 0.0 | 0.0 | 0.00 | 0.00 | 0.00 | 44 | 1017.4 | |
| 20260507182007 | 40 | 0.0 | 0.0 | 0.00 | 0.00 | 0.00 | 44 | 1017.4 | |
| 20260507181217 | 40 | 0.0 | 0.0 | 0.00 | 0.00 | 0.00 | 43 | 1017.5 | |
| 20260507180006 | 40 | 0.0 | 0.0 | 0.00 | 0.00 | 0.00 | 44 | 1017.5 | |
| 20260507175216 | 40 | 0.0 | 0.0 | 0.00 | 0.00 | 0.00 | 44 | 1017.5 | |
| 20260507174006 | 40 | 0.0 | 0.0 | 0.00 | 0.00 | 0.00 | 45 | 1017.5 | |
| 20260507173006 | 39 | 0.0 | 0.0 | 0.00 | 0.00 | 0.00 | 45 | 1017.5 | |
| 20260507172006 | 38 | 0.0 | 0.0 | 0.00 | 0.00 | 0.00 | 46 | 1017.5 | |
| 20260507171216 | 38 | 0.0 | 0.0 | 0.00 | 0.00 | 0.00 | 47 | 1017.5 | |
| 20260507170006 | 38 | 0.0 | 0.0 | 0.00 | 0.00 | 0.00 | 48 | 1017.6 | |
| 20260507165005 | 37 | 0.0 | 0.0 | 0.00 | 0.00 | 0.00 | 49 | 1017.6 | |
| 20260507164005 | 36 | 0.0 | 0.0 | 0.00 | 0.00 | 0.00 | 50 | 1017.6 | |
| 20260507163005 | 36 | 0.0 | 0.0 | 0.00 | 0.00 | 0.00 | 51 | 1017.7 | |
| 20260507162006 | 35 | 0.0 | 0.0 | 0.00 | 0.00 | 0.00 | 51 | 1017.7 | |
| 20260507161005 | 35 | 0.0 | 0.0 | 0.00 | 0.00 | 0.00 | 52 | 1017.7 | |
| 20260507160006 | 34 | 0.0 | 0.0 | 0.00 | 0.00 | 0.00 | 52 | 1017.7 | |
| 20260507155216 | 34 | 0.0 | 0.0 | 0.00 | 0.00 | 0.00 | 52 | 1017.6 | |
| 20260507154006 | 33 | 0.0 | 0.0 | 0.00 | 0.00 | 0.00 | 53 | 1017.7 | |
| 20260507153006 | 33 | 0.0 | 0.0 | 0.00 | 0.00 | 0.00 | 53 | 1017.7 | |
| 20260507152006 | 32 | 0.0 | 0.0 | 0.00 | 0.00 | 0.00 | 54 | 1017.6 | |
| 20260507151006 | 32 | 0.0 | 0.0 | 0.00 | 0.00 | 0.00 | 54 | 1017.4 | |
| 20260507150216 | 31 | 0.0 | 0.0 | 0.00 | 0.00 | 0.00 | 54 | 1017.3 | |
| 20260507145006 | 31 | 0.0 | 0.0 | 0.00 | 0.00 | 0.00 | 54 | 1017.5 | |
| 20260507144005 | 31 | 0.0 | 0.0 | 0.00 | 0.00 | 0.00 | 53 | 1017.5 | |
| 20260507143005 | 30 | 0.0 | 0.0 | 0.00 | 0.00 | 0.00 | 53 | 1017.4 | |
| 20260507142005 | 30 | 0.0 | 0.0 | 0.00 | 0.00 | 0.00 | 53 | 1017.6 | |
| 20260507141007 | 30 | 0.0 | 0.0 | 0.00 | 0.00 | 0.00 | 53 | 1017.5 | |
| 20260507140006 | 30 | 0.0 | 0.0 | 0.00 | 0.00 | 0.00 | 53 | 1017.5 | |
| 20260507135006 | 30 | 0.0 | 0.0 | 0.00 | 0.00 | 0.00 | 53 | 1017.5 | |
| 20260507134006 | 30 | 0.0 | 0.0 | 0.00 | 0.00 | 0.00 | 52 | 1017.3 | |
| 20260507133006 | 30 | 0.0 | 0.0 | 0.00 | 0.00 | 0.00 | 53 | 1017.2 | |
| 20260507132006 | 30 | 0.0 | 0.0 | 0.00 | 0.00 | 0.00 | 53 | 1017.3 | |
| 20260507131006 | 29 | 0.0 | 0.0 | 0.00 | 0.00 | 0.00 | 52 | 1017.4 | |
| 20260507130217 | 30 | 0.0 | 0.0 | 0.00 | 0.00 | 0.00 | 52 | 1017.4 | |
| 20260507125006 | 30 | 0.0 | 0.0 | 0.00 | 0.00 | 0.00 | 52 | 1017.4 | |
| 20260507124005 | 30 | 0.0 | 0.0 | 0.00 | 0.00 | 0.00 | 52 | 1017.4 | |
| 20260507123214 | 30 | 0.0 | 0.0 | 0.00 | 0.00 | 0.00 | 51 | 1017.4 | |
| 20260507122005 | 30 | 0.0 | 0.0 | 0.00 | 0.00 | 0.00 | 51 | 1017.2 | |
| 20260507121216 | 30 | 0.0 | 0.0 | 0.00 | 0.00 | 0.00 | 51 | 1017.2 | |
| 20260507120006 | 30 | 0.0 | 0.0 | 0.00 | 0.00 | 0.00 | 50 | 1017.2 | |
| 20260507115005 | 31 | 0.0 | 0.0 | 0.00 | 0.00 | 0.00 | 50 | 1017.2 | |
| 20260507114006 | 31 | 0.0 | 0.0 | 0.00 | 0.00 | 0.00 | 50 | 1017.1 | |
| 20260507113006 | 32 | 0.0 | 0.0 | 0.00 | 0.00 | 0.00 | 51 | 1017.0 | |
| 20260507112006 | 32 | 0.0 | 0.0 | 0.00 | 0.00 | 0.00 | 51 | 1017.1 | |
| 20260507111005 | 32 | 0.0 | 0.0 | 0.00 | 0.00 | 0.00 | 50 | 1017.0 | |
| 20260507110006 | 32 | 0.0 | 0.0 | 0.00 | 0.00 | 0.00 | 50 | 1017.0 | |
| 20260507105006 | 32 | 0.0 | 0.0 | 0.00 | 0.00 | 0.00 | 49 | 1017.0 | |
| 20260507104006 | 33 | 0.0 | 0.0 | 0.00 | 0.00 | 0.00 | 49 | 1017.0 | |
| 20260507103005 | 33 | 0.0 | 0.0 | 0.00 | 0.00 | 0.00 | 48 | 1017.0 | |
| 20260507102007 | 33 | 0.0 | 0.0 | 0.00 | 0.00 | 0.00 | 48 | 1016.9 | |
| 20260507101006 | 33 | 0.0 | 0.0 | 0.00 | 0.00 | 0.00 | 48 | 1016.7 | |
| 20260507100005 | 34 | 0.0 | 0.0 | 0.00 | 0.00 | 0.00 | 48 | 1016.7 | |
| 20260507095006 | 34 | 0.0 | 0.0 | 0.00 | 0.00 | 0.00 | 48 | 1016.6 | |
| 20260507094216 | 34 | 0.0 | 0.0 | 0.00 | 0.00 | 0.00 | 47 | 1016.7 | |
| 20260507093005 | 34 | 0.0 | 0.0 | 0.00 | 0.00 | 0.00 | 47 | 1016.6 | |
| 20260507092005 | 34 | 0.0 | 0.0 | 0.00 | 0.00 | 0.00 | 47 | 1016.5 | |
| 20260507091005 | 34 | 0.0 | 0.0 | 0.00 | 0.00 | 0.00 | 48 | 1016.3 | |
| 20260507090006 | 35 | 0.0 | 0.0 | 0.00 | 0.00 | 0.00 | 47 | 1016.2 | |
| 20260507085217 | 36 | 0.0 | 0.0 | 0.00 | 0.00 | 0.00 | 46 | 1016.3 | |
| 20260507084006 | 34 | 0.0 | 0.0 | 0.00 | 0.00 | 0.00 | 46 | 1016.2 | |
| 20260507083005 | 34 | 0.0 | 0.0 | 0.00 | 0.00 | 0.00 | 46 | 1016.1 | |
| 20260507082006 | 34 | 0.0 | 0.0 | 0.00 | 0.00 | 0.00 | 46 | 1016.1 | |
| 20260507081006 | 34 | 0.0 | 0.0 | 0.00 | 0.00 | 0.00 | 46 | 1016.1 | |
| 20260507080006 | 35 | 0.0 | 0.0 | 0.00 | 0.00 | 0.00 | 45 | 1016.0 | |
| 20260507075006 | 36 | 0.0 | 0.0 | 0.00 | 0.00 | 0.00 | 43 | 1015.9 | |
| 20260507074006 | 37 | 0.0 | 0.0 | 0.00 | 0.00 | 0.00 | 41 | 1015.8 | |
| 20260507073005 | 36 | 0.0 | 0.0 | 0.00 | 0.00 | 0.00 | 41 | 1015.8 | |
| 20260507072006 | 36 | 0.0 | 0.0 | 0.00 | 0.00 | 0.00 | 40 | 1015.8 | |
| 20260507071006 | 37 | 0.0 | 0.0 | 0.00 | 0.00 | 0.00 | 39 | 1015.7 | |
| 20260507070010 | 37 | 0.0 | 0.0 | 0.00 | 0.00 | 0.00 | 39 | 1015.6 | |
| 20260507065006 | 38 | 0.0 | 0.0 | 0.00 | 0.00 | 0.00 | 38 | 1015.5 | |
| 20260507064006 | 38 | 0.0 | 0.0 | 0.00 | 0.00 | 0.00 | 38 | 1015.5 | |
| 20260507063007 | 38 | 0.0 | 0.0 | 0.00 | 0.00 | 0.00 | 38 | 1015.3 | |
| 20260507062006 | 38 | 0.0 | 0.0 | 0.00 | 0.00 | 0.00 | 38 | 1015.3 | |
| 20260507061006 | 38 | 0.0 | 0.0 | 0.00 | 0.00 | 0.00 | 38 | 1015.2 | |
| 20260507060005 | 38 | 0.0 | 0.0 | 0.00 | 0.00 | 0.00 | 37 | 1015.1 | |
| 20260507055006 | 38 | 0.0 | 0.0 | 0.00 | 0.00 | 0.00 | 38 | 1015.1 | |
| 20260507054006 | 38 | 0.0 | 0.0 | 0.00 | 0.00 | 0.00 | 36 | 1015.1 | |
| 20260507053005 | 39 | 0.0 | 0.0 | 0.00 | 0.00 | 0.00 | 35 | 1015.0 | |
| 20260507052006 | 39 | 0.0 | 0.0 | 0.00 | 0.00 | 0.00 | 37 | 1015.0 | |
| 20260507051005 | 39 | 0.0 | 0.0 | 0.00 | 0.00 | 0.00 | 36 | 1014.9 | |
| 20260507050006 | 39 | 0.0 | 0.0 | 0.00 | 0.00 | 0.00 | 36 | 1014.9 | |
| 20260507045216 | 40 | 0.0 | 0.0 | 0.00 | 0.00 | 0.00 | 33 | 1014.8 | |
| 20260507044006 | 40 | 0.0 | 0.0 | 0.00 | 0.00 | 0.00 | 32 | 1014.8 | |
| 20260507043006 | 41 | 0.0 | 0.0 | 0.00 | 0.00 | 0.00 | 31 | 1014.7 | |
| 20260507042006 | 41 | 0.0 | 0.0 | 0.00 | 0.00 | 0.00 | 31 | 1014.7 | |
| 20260507041006 | 42 | 0.0 | 0.0 | 0.00 | 0.00 | 0.00 | 31 | 1014.6 | |
| 20260507040006 | 42 | 0.0 | 0.0 | 0.00 | 0.00 | 0.00 | 30 | 1014.6 | |
| 20260507035006 | 42 | 0.0 | 0.0 | 0.00 | 0.00 | 0.00 | 30 | 1014.7 | |
| 20260507034005 | 42 | 0.0 | 0.0 | 0.00 | 0.00 | 0.00 | 30 | 1014.6 | |
| 20260507033005 | 42 | 0.0 | 0.0 | 0.00 | 0.00 | 0.00 | 30 | 1014.6 | |
| 20260507032005 | 42 | 0.0 | 0.0 | 0.00 | 0.00 | 0.00 | 29 | 1014.6 | |
| 20260507031006 | 42 | 0.0 | 0.0 | 0.00 | 0.00 | 0.00 | 28 | 1014.6 | |
| 20260507030005 | 42 | 0.0 | 0.0 | 0.00 | 0.00 | 0.00 | 28 | 1014.6 | |
| 20260507025006 | 42 | 0.0 | 0.0 | 0.00 | 0.00 | 0.00 | 28 | 1014.5 | |
| 20260507024006 | 42 | 0.0 | 0.0 | 0.00 | 0.00 | 0.00 | 28 | 1014.5 | |
| 20260507023221 | 42 | 0.0 | 0.0 | 0.00 | 0.00 | 0.00 | 27 | 1014.4 | |
| 20260507022006 | 42 | 0.0 | 0.0 | 0.00 | 0.00 | 0.00 | 26 | 1014.4 | |
| 20260507021006 | 42 | 0.0 | 0.0 | 0.00 | 0.00 | 0.00 | 27 | 1014.3 | |
| 20260507020217 | 43 | 0.0 | 0.0 | 0.00 | 0.00 | 0.00 | 27 | 1014.3 | |
| 20260507015006 | 42 | 0.0 | 0.0 | 0.00 | 0.00 | 0.00 | 26 | 1014.2 |